GFSFLT2_700_spd_210.txt.gz
Wind_Speed
5 8 12 16 18 18 18 18 17 16 15 14 14 13 9 8 7 8 7 7 7 6 5 7 8 9 6 6 7 8 9 11
7 9 12 15 16 17 19 20 19 19 18 17 17 15 12 10 9 8 8 6 7 7 7 6 6 8 6 5 4 5 6 8
6 9 10 11 15 17 18 20 21 22 20 19 19 17 16 13 11 10 9 7 7 8 8 8 7 7 7 5 4 4 4 6
6 3 8 10 12 13 15 18 21 23 22 21 21 20 19 17 14 13 11 10 8 8 9 9 10 9 7 7 6 6 5 7
8 6 4 5 9 11 13 16 18 21 22 23 22 20 20 20 17 17 15 14 12 10 10 11 11 11 10 9 9 8 8 8
11 9 9 7 7 9 11 13 16 19 22 24 23 22 21 22 22 20 19 18 16 14 13 13 13 12 12 11 11 10 9 9
16 14 12 10 8 7 11 12 13 16 19 23 25 24 23 23 24 24 24 23 21 19 17 16 15 14 13 14 13 12 11 10
21 19 18 14 14 11 9 10 14 16 18 22 25 26 25 25 25 26 27 27 26 24 22 20 18 17 16 15 16 15 14 13
23 22 20 20 18 17 16 15 16 17 19 21 24 26 28 27 28 28 29 29 28 29 28 26 24 21 20 18 18 18 18 17
23 26 25 23 23 22 21 19 19 18 20 22 23 25 27 28 28 29 31 30 31 30 31 31 30 28 26 24 23 22 21 21
24 24 25 25 26 25 24 23 21 21 20 19 21 25 26 28 29 30 30 31 32 33 33 33 34 34 32 29 29 27 26 25
25 23 23 25 31 28 26 25 22 22 24 24 24 25 26 27 29 29 32 33 34 34 35 36 38 38 37 36 34 33 32 31
23 24 24 22 24 28 28 28 28 26 27 28 29 29 29 28 30 31 31 32 33 35 37 38 39 40 40 39 39 38 37 35
27 28 29 29 29 29 30 31 32 33 34 35 35 35 34 35 34 34 34 36 36 36 38 39 41 42 42 40 43 43 42 40
27 28 29 31 33 35 37 38 36 37 39 40 42 42 42 41 40 41 42 39 40 39 40 41 42 43 42 43 47 47 45 45
25 27 29 30 30 32 32 34 34 33 37 40 42 45 47 48 47 47 47 45 45 44 44 44 45 45 44 46 48 49 47 46
24 25 26 28 29 30 31 30 31 30 27 28 30 34 38 40 47 51 51 50 50 52 51 49 48 50 47 46 49 49 50 50
25 26 27 26 25 27 31 35 37 39 38 37 36 35 36 37 37 41 48 54 55 55 54 54 52 52 52 51 53 52 52 52
26 26 27 29 32 34 37 39 41 42 45 47 46 45 44 43 42 42 43 45 53 58 59 58 57 57 57 56 59 57 54 57
29 32 35 38 40 43 45 49 50 46 43 43 45 46 47 45 44 45 47 47 49 50 57 60 58 61 62 59 60 64 61 59

GFSFLT2_700_spd_216.txt.gz
Wind_Speed
2 3 6 9 13 14 14 14 13 13 12 11 9 8 8 8 7 5 5 5 6 6 6 6 6 5 5 6 7 8 12 13
3 3 3 5 10 13 14 15 14 14 14 14 13 11 10 9 9 8 5 5 5 5 5 5 6 5 4 5 7 9 13 12
5 5 7 8 9 12 14 14 15 15 15 16 15 13 12 11 11 11 9 8 7 6 6 6 6 6 5 5 6 11 13 16
7 7 9 8 10 11 11 13 15 15 16 16 16 16 15 13 12 13 14 12 10 9 9 9 8 8 7 7 8 10 11 12
10 9 11 11 12 12 13 14 15 15 15 15 16 19 18 16 16 14 16 15 13 11 11 11 10 10 9 10 10 14 12 10
13 14 13 13 14 11 13 15 15 15 15 15 16 19 20 19 19 17 17 16 18 16 14 13 13 13 12 12 13 13 12 14
18 17 17 15 16 16 16 16 16 17 17 16 17 18 20 21 21 22 21 19 17 20 18 17 16 16 16 16 16 17 16 14
25 21 20 20 19 19 18 15 15 17 19 16 15 16 19 21 20 23 24 24 21 21 21 22 19 20 20 20 19 20 20 20
28 25 24 24 21 22 21 19 18 17 16 16 16 17 20 21 23 24 24 26 27 25 24 24 24 24 25 24 24 24 23 25
30 33 24 24 26 26 26 24 23 23 21 20 18 18 20 23 24 26 25 27 30 28 26 26 27 28 29 29 29 28 28 28
23 33 25 27 29 30 28 28 29 28 25 23 23 22 21 22 24 24 26 28 30 30 29 29 29 31 32 33 32 33 33 33
34 28 23 25 30 29 31 31 30 31 30 28 28 26 26 25 23 23 26 30 30 32 31 32 33 33 34 37 35 35 37 36
29 28 24 22 30 32 30 31 33 35 35 34 33 32 30 30 29 29 29 31 32 34 32 33 33 34 34 38 39 37 39 38
27 27 25 24 27 32 33 33 34 34 36 38 37 36 35 35 34 34 34 35 36 37 38 35 35 33 38 36 42 41 40 41
29 29 28 28 30 29 31 32 32 31 30 32 33 34 37 39 40 41 41 41 42 41 42 43 41 39 41 41 44 47 43 43
32 32 30 30 31 30 29 29 29 30 30 31 31 31 30 31 33 35 36 40 43 45 45 46 47 47 47 50 48 48 52 51
30 29 28 27 27 27 25 25 24 25 27 29 30 32 35 36 36 36 36 37 37 38 39 40 47 49 50 53 53 53 53 57
28 26 25 26 27 26 25 25 27 29 32 35 37 38 41 39 37 38 40 42 43 43 42 40 37 42 47 50 55 56 54 56
26 26 27 26 26 26 27 28 30 32 34 37 40 41 44 48 49 48 47 45 45 45 45 46 46 44 41 45 50 54 56 56
28 27 28 28 28 28 29 30 33 35 38 40 42 44 45 45 46 46 45 44 44 45 45 46 47 49 52 52 53 51 57 57

GFSFLT2_700_spd_219.txt.gz
Wind_Speed
6 7 8 10 13 16 16 13 11 9 9 9 9 7 6 6 5 3 3 3 4 5 5 6 6 5 4 3 6 7 8 9
6 6 8 9 11 11 12 12 11 10 11 11 11 10 8 7 7 6 5 4 4 5 5 6 7 7 6 6 9 10 8 8
5 7 9 9 10 10 11 11 12 11 11 12 11 12 11 10 8 9 9 7 5 5 5 6 6 6 6 6 9 9 9 8
5 7 7 9 11 12 11 11 12 12 12 12 13 14 14 14 11 10 11 10 9 7 7 7 7 7 6 7 9 10 10 9
7 9 10 11 9 11 12 13 12 12 12 12 13 14 16 16 14 12 13 13 13 12 11 9 10 10 9 8 9 9 10 10
10 12 12 13 11 12 13 14 14 13 14 14 14 15 16 16 17 16 17 15 16 16 15 14 14 13 12 12 12 10 9 11
19 16 16 17 14 15 13 12 12 15 15 13 15 16 16 17 18 19 18 18 18 18 17 18 18 18 18 16 17 17 14 12
21 21 15 20 18 19 17 15 14 14 13 13 14 15 15 17 18 20 19 20 19 20 19 19 19 21 22 21 21 21 20 18
29 29 22 18 22 23 21 19 17 17 15 11 11 13 14 17 19 20 21 23 23 23 20 20 21 21 23 25 25 25 28 24
27 27 25 16 22 24 22 20 20 20 19 17 15 15 17 17 19 21 21 22 24 25 24 22 22 24 25 26 26 28 31 29
27 26 26 20 17 25 26 25 25 25 25 23 21 19 20 20 20 21 23 24 24 26 27 26 26 26 28 29 29 28 31 33
31 27 30 25 19 23 27 26 28 29 28 26 26 25 26 25 24 24 24 25 26 27 27 29 28 28 31 32 33 32 33 36
35 35 33 30 26 23 28 29 27 28 30 31 31 30 30 31 29 28 26 27 28 29 31 31 32 29 33 36 37 34 35 36
31 29 30 29 28 25 27 31 32 31 32 33 35 35 36 36 35 34 31 32 32 33 35 37 36 33 36 37 41 42 37 38
29 29 29 26 29 28 27 29 33 35 34 32 30 29 31 33 35 36 35 35 36 38 38 38 38 39 42 41 43 48 45 43
30 30 30 28 30 28 28 27 26 25 24 24 23 21 22 23 25 26 28 31 32 33 34 37 39 41 43 45 48 48 51 53
32 30 30 29 28 26 25 25 24 25 25 24 25 25 26 28 30 30 31 32 32 33 35 37 39 39 41 42 45 48 53 55
32 29 28 27 26 24 23 22 23 23 22 23 25 27 31 34 36 37 38 40 41 42 42 41 40 42 43 41 42 47 53 49
30 28 26 25 24 23 23 24 25 26 28 29 30 32 35 40 41 42 43 45 45 45 45 47 45 45 46 46 46 48 48 52
28 27 27 26 26 27 27 27 26 28 30 32 34 36 37 41 44 44 41 41 42 44 46 45 44 44 45 47 47 45 46 55

GFSFLT2_700_spd_222.txt.gz
Wind_Speed
8 11 14 17 18 19 18 16 14 13 11 10 9 8 7 7 6 4 3 2 2 3 4 4 4 4 5 6 7 8 7 7
8 11 13 14 17 19 19 17 16 14 13 11 9 9 10 9 8 7 6 4 3 3 3 3 4 5 6 7 7 6 6 7
11 9 11 14 15 17 17 17 17 15 13 11 10 11 12 12 10 9 9 8 6 5 4 3 3 4 6 7 9 8 7 6
10 10 11 13 14 14 15 16 16 14 13 12 13 13 13 14 12 11 11 12 11 10 8 7 6 6 6 6 6 8 8 8
14 11 10 11 11 12 14 15 15 14 14 14 14 13 14 14 15 14 15 14 15 15 13 12 10 9 9 9 8 7 7 8
15 12 12 12 13 13 14 15 16 15 15 14 15 15 15 15 15 17 17 16 16 17 17 16 15 13 13 14 12 10 11 8
14 13 14 15 17 16 15 15 13 14 15 15 15 15 15 16 17 17 18 18 18 18 17 19 18 17 15 17 18 16 15 13
17 18 16 16 19 20 19 16 16 14 12 12 15 17 16 16 17 16 17 18 18 18 19 20 19 19 19 20 20 21 20 19
22 22 19 18 19 22 22 19 19 17 13 11 11 13 14 15 16 17 18 19 19 19 17 20 20 19 19 22 24 24 23 24
22 19 17 19 19 20 24 23 23 19 17 16 15 15 16 16 16 15 17 19 20 20 21 20 19 20 21 23 25 27 25 24
26 24 23 21 18 18 22 23 24 22 20 19 18 18 20 20 18 19 20 21 22 22 22 22 21 21 23 25 26 28 30 28
28 27 25 25 22 20 18 21 24 24 23 21 21 20 20 21 22 23 24 24 25 25 25 24 24 24 26 28 29 29 31 31
33 34 31 28 27 27 25 24 24 27 24 24 24 25 25 25 26 27 27 27 27 28 28 29 29 29 33 34 34 34 33 35
36 37 39 37 32 29 30 28 26 28 29 29 28 29 29 31 32 33 33 32 30 31 33 33 34 35 39 40 43 41 39 39
35 38 37 34 30 30 31 31 28 28 30 33 33 32 33 33 32 31 31 32 32 34 37 37 40 39 40 44 45 49 48 46
27 31 34 34 33 31 29 30 29 26 24 24 23 24 24 24 24 24 24 25 26 27 29 32 34 36 36 39 40 46 46 51
30 28 28 32 32 29 28 28 25 23 22 21 21 20 20 22 23 24 25 28 30 32 34 36 38 38 39 39 41 40 45 49
35 34 31 32 31 29 27 26 23 21 21 21 21 22 24 26 27 29 32 34 37 39 41 42 43 43 45 46 47 45 47 40
38 37 34 29 29 26 24 23 22 22 21 22 24 27 29 31 33 35 37 39 40 41 41 42 44 45 45 45 47 48 48 45
37 32 29 28 27 25 25 24 23 24 25 27 28 30 33 35 37 39 38 39 41 42 43 44 45 45 46 46 47 48 48 48

GFSFLT2_700_spd_228.txt.gz
Wind_Speed
22 20 19 19 18 17 15 13 14 13 11 11 9 9 9 9 9 7 5 4 3 2 2 4 5 6 8 8 8 8 7 6
18 15 16 15 20 17 15 15 14 14 14 14 11 11 12 12 12 12 10 7 6 4 4 3 3 3 4 6 7 7 7 7
14 13 14 15 20 15 15 15 16 16 16 15 12 14 14 14 14 13 12 11 9 8 7 6 6 4 3 2 3 5 6 6
10 11 12 15 14 12 13 15 16 16 16 14 14 16 15 16 16 14 14 13 13 13 11 10 10 8 7 5 4 4 6 6
11 10 11 8 8 9 12 13 15 15 15 14 16 17 16 16 16 16 17 16 15 15 15 14 14 13 11 10 8 8 8 8
14 12 11 9 9 9 10 11 12 13 13 14 17 17 17 18 17 17 18 19 18 17 16 17 17 17 17 15 14 12 12 12
18 16 13 11 11 10 9 8 9 11 13 14 16 17 17 17 17 17 18 18 19 20 19 19 19 19 19 18 18 18 17 17
21 17 16 16 16 14 13 13 12 12 13 15 16 17 19 19 18 18 18 18 19 19 19 19 20 20 21 21 20 20 21 20
24 22 20 18 18 16 13 16 16 15 16 18 18 18 18 17 18 18 18 18 18 18 19 19 20 22 22 22 23 23 22 22
21 22 18 21 19 18 15 15 16 18 20 21 21 20 19 18 16 16 17 16 17 17 17 18 19 20 21 23 25 25 25 25
20 19 18 17 20 21 18 16 14 16 22 23 22 23 23 21 19 19 19 18 18 18 19 19 19 20 21 20 23 25 26 26
23 22 23 23 21 21 21 19 17 17 16 22 25 26 26 25 23 22 23 22 22 22 22 22 23 23 24 24 25 26 26 26
24 25 27 27 26 27 25 19 19 25 20 20 21 27 29 29 27 26 25 23 24 24 25 25 27 27 29 30 30 32 31 33
28 30 29 30 31 30 28 25 27 27 26 26 26 23 24 28 29 27 25 25 24 28 29 29 28 30 32 35 37 37 37 38
28 29 27 27 31 32 32 32 32 29 31 30 26 24 24 26 29 30 29 29 30 30 31 31 30 30 30 31 36 39 40 39
30 26 26 27 30 34 34 34 35 35 34 28 26 27 28 27 28 30 30 33 32 31 24 24 24 26 30 32 35 40 45 50
29 22 23 27 24 29 31 32 33 34 30 30 29 30 29 27 27 25 25 23 22 24 26 28 30 32 34 36 38 42 45 49
29 28 28 27 28 25 27 29 30 30 28 34 32 29 27 26 25 23 22 22 25 27 30 32 34 36 39 41 43 44 45 47
33 33 34 33 32 29 29 30 28 29 35 31 29 28 27 25 23 23 24 26 28 30 32 35 38 40 42 43 44 44 45 45
36 33 37 38 37 34 31 29 29 31 32 30 28 27 24 23 24 25 27 28 31 33 36 38 41 42 42 41 42 42 43 45

GFSFLT2_700_spd_231.txt.gz
Wind_Speed
26 26 25 21 18 16 14 12 12 12 11 9 9 8 8 7 6 6 6 5 3 1 2 3 5 6 6 6 6 6 6 5
20 22 24 24 19 19 15 13 15 13 11 11 11 9 9 8 8 8 9 8 6 5 3 2 2 3 4 6 6 6 6 6
20 22 27 21 19 17 14 15 16 15 13 12 11 9 10 10 10 10 12 11 10 8 7 5 5 5 5 5 5 6 6 6
20 23 22 20 17 16 14 16 16 13 13 12 11 11 11 11 11 11 13 13 13 11 10 9 9 8 7 7 6 6 6 6
17 19 20 18 15 15 14 14 13 12 13 12 12 12 12 12 12 14 15 16 15 14 12 12 12 12 12 10 10 10 9 9
17 17 16 15 16 13 12 12 11 12 13 14 14 14 13 14 15 16 16 17 17 16 15 14 14 14 14 15 14 15 15 14
18 17 16 16 14 12 12 11 10 12 14 15 15 16 15 15 17 17 18 18 19 18 17 16 16 16 16 16 16 17 18 18
20 19 17 17 15 13 13 13 14 15 15 15 16 17 16 17 19 20 20 21 21 20 19 18 17 17 17 17 17 18 19 19
21 22 21 18 16 15 15 16 17 17 16 17 17 17 17 17 19 20 21 21 21 21 20 19 17 17 18 19 20 20 20 21
23 23 23 21 19 19 18 17 16 17 19 19 19 18 18 18 18 18 18 17 18 18 18 17 17 17 17 19 20 22 22 24
24 23 23 21 21 20 20 21 17 16 18 20 22 22 21 20 20 21 20 20 19 19 18 18 18 19 19 19 19 21 22 24
29 24 23 22 24 22 22 22 19 19 17 15 19 23 24 24 24 24 24 23 22 22 23 23 21 22 23 24 24 24 25 24
35 30 28 30 28 25 22 22 21 19 20 17 13 16 22 26 27 28 27 26 25 25 24 24 24 25 26 27 25 26 26 28
41 35 32 32 29 27 24 23 24 22 23 22 20 19 23 25 25 29 30 28 26 24 24 25 28 29 31 30 30 29 28 28
46 36 32 34 33 31 30 29 29 30 27 26 25 25 27 27 23 21 24 26 26 28 28 28 31 29 27 26 29 32 33 33
48 41 36 37 36 33 33 32 30 29 26 26 29 30 28 24 24 25 28 28 30 31 31 33 28 25 26 27 30 34 37 42
45 41 38 38 38 33 33 33 32 31 31 31 33 35 28 25 25 27 28 29 35 28 31 23 24 26 28 30 33 37 41 46
40 40 37 32 32 31 28 24 29 30 30 28 31 31 29 25 27 26 24 23 23 23 23 24 26 29 32 35 38 40 43 46
45 43 36 33 31 28 29 27 26 26 27 28 29 28 30 27 26 25 23 22 23 24 26 28 30 33 35 38 41 44 45 46
41 41 36 35 34 30 30 30 30 29 29 26 27 28 27 26 26 25 24 24 25 27 29 31 33 35 38 41 43 43 44 44

GFSFLT2_700_spd_234.txt.gz
Wind_Speed
24 23 22 21 19 17 15 13 13 12 10 10 9 7 5 4 4 4 3 3 2 2 2 3 5 5 5 6 6 6 6 6
23 25 24 23 21 19 17 15 15 13 11 10 10 8 6 6 6 6 6 5 5 5 4 2 1 2 3 4 4 5 5 5
22 25 28 25 23 20 19 17 16 15 12 11 11 9 8 8 8 7 7 7 7 8 7 6 4 3 3 3 4 3 3 3
22 22 24 25 24 23 19 17 16 14 12 12 12 11 10 10 9 8 9 10 10 10 10 10 9 7 7 7 6 7 6 6
23 21 23 25 26 22 20 17 15 15 14 15 15 13 12 12 11 11 10 12 13 13 13 12 12 11 11 11 11 10 11 10
20 22 24 26 25 21 20 17 17 17 16 16 16 14 14 14 14 14 12 14 15 16 16 15 14 14 13 13 13 14 15 15
19 21 23 24 23 20 21 19 18 17 17 16 16 16 17 16 16 16 15 16 17 17 17 17 17 16 15 15 14 15 16 17
20 21 23 24 23 21 21 19 18 17 17 17 17 18 18 18 18 18 17 18 18 18 18 18 17 17 16 16 15 15 16 17
22 23 25 26 24 24 23 21 20 19 20 20 19 19 19 19 19 20 19 19 20 20 19 18 18 17 17 18 18 17 18 19
24 24 26 27 26 25 23 22 21 21 23 21 20 20 20 20 19 20 19 18 17 17 17 17 17 17 16 17 17 17 18 19
27 27 26 29 29 26 24 23 22 22 23 22 23 23 23 21 21 21 20 19 18 18 18 18 19 18 18 19 20 19 20 21
32 30 28 31 32 29 26 25 25 25 23 21 19 22 25 24 23 22 21 22 21 21 22 22 23 22 22 21 21 23 24 24
37 34 32 32 32 30 27 26 26 27 25 22 20 17 18 22 23 23 23 25 25 25 26 26 23 23 25 24 25 25 25 25
42 39 38 35 33 32 29 29 25 26 27 23 23 21 20 18 18 21 24 27 29 29 29 27 25 25 25 27 27 25 25 22
45 44 41 40 36 37 35 34 29 27 27 26 25 24 23 22 20 23 27 25 25 27 28 27 28 28 28 29 27 23 25 26
46 47 47 45 41 40 39 35 31 29 29 29 28 26 26 25 24 26 25 25 26 27 27 26 27 25 33 26 23 25 28 31
38 48 51 50 45 42 42 41 36 33 33 32 30 29 28 27 28 30 29 26 29 20 29 29 31 30 26 26 28 30 32 37
40 48 52 54 50 45 45 42 39 36 35 34 33 32 28 29 31 32 30 29 28 27 28 26 26 26 26 28 30 32 35 40
41 45 52 53 54 47 44 41 39 33 34 34 34 30 29 30 33 30 29 26 25 24 23 23 25 26 28 30 33 35 37 41
41 42 48 50 50 47 44 42 40 37 33 34 32 31 32 32 28 28 26 24 24 23 23 24 26 27 30 33 35 38 42 43